2021-11-24 00:03:25 r, 17.56m,0000000008Hz,0000057712c,0000000.125s, 010.9C,00002191
2021-11-24 00:13:23 r, 17.72m,0000000007Hz,0000067163c,0000000.146s, 010.9C,00002191
2021-11-24 00:23:23 r, 17.91m,0000000006Hz,0000080825c,0000000.175s, 010.9C,00002191
2021-11-24 00:33:24 r, 17.70m,0000000007Hz,0000066145c,0000000.144s, 010.9C,00002191
2021-11-24 00:43:25 r, 17.72m,0000000007Hz,0000067374c,0000000.146s, 010.6C,00002191
2021-11-24 00:53:23 r, 17.44m,0000000009Hz,0000051834c,0000000.112s, 010.9C,00002191
2021-11-24 01:03:24 r, 17.81m,0000000007Hz,0000073504c,0000000.160s, 010.9C,00002191
2021-11-24 01:13:23 r, 17.42m,0000000009Hz,0000050821c,0000000.110s, 010.9C,00002191
2021-11-24 01:23:23 r, 17.24m,0000000010Hz,0000043185c,0000000.094s, 010.9C,00002191
2021-11-24 01:33:25 r, 17.19m,0000000011Hz,0000041211c,0000000.089s, 010.9C,00002191
2021-11-24 01:43:23 r, 17.09m,0000000012Hz,0000037847c,0000000.082s, 010.9C,00002191
2021-11-24 01:53:23 r, 17.21m,0000000011Hz,0000042055c,0000000.091s, 011.2C,00002191
2021-11-24 02:03:25 r, 17.24m,0000000010Hz,0000043320c,0000000.094s, 011.2C,00002191
2021-11-24 02:13:24 r, 17.05m,0000000013Hz,0000036564c,0000000.079s, 011.2C,00002191
2021-11-24 02:23:23 r, 17.11m,0000000012Hz,0000038437c,0000000.083s, 011.2C,00002191
2021-11-24 02:33:23 r, 16.96m,0000000014Hz,0000033521c,0000000.073s, 011.2C,00002191
2021-11-24 02:43:24 r, 17.08m,0000000012Hz,0000037296c,0000000.081s, 011.2C,00002191
2021-11-24 02:53:23 r, 16.63m,0000000019Hz,0000024506c,0000000.053s, 011.2C,00002191
2021-11-24 03:03:24 r, 16.71m,0000000015Hz,0000026601c,0000000.058s, 010.9C,00002191
2021-11-24 03:13:23 r, 16.74m,0000000017Hz,0000027377c,0000000.059s, 010.9C,00002191
2021-11-24 03:23:23 r, 16.60m,0000000019Hz,0000023813c,0000000.052s, 010.9C,00002191
2021-11-24 03:33:23 r, 17.20m,0000000011Hz,0000041956c,0000000.091s, 010.9C,00002191
2021-11-24 03:43:25 r, 17.21m,0000000010Hz,0000042199c,0000000.092s, 010.9C,00002191
2021-11-24 03:53:23 r, 17.27m,0000000010Hz,0000044479c,0000000.097s, 010.6C,00002191
2021-11-24 04:03:25 r, 17.31m,0000000010Hz,0000046293c,0000000.100s, 010.6C,00002191
2021-11-24 04:13:23 r, 17.36m,0000000010Hz,0000048014c,0000000.104s, 010.3C,00002191
2021-11-24 04:23:23 r, 17.28m,0000000011Hz,0000044939c,0000000.098s, 009.9C,00002191
2021-11-24 04:33:25 r, 17.16m,0000000012Hz,0000040064c,0000000.087s, 009.6C,00002191
2021-11-24 04:43:23 r, 17.13m,0000000012Hz,0000038737c,0000000.084s, 009.3C,00002191
2021-11-24 04:53:23 r, 17.09m,0000000012Hz,0000037406c,0000000.081s, 009.0C,00002191
2021-11-24 05:03:23 r, 17.10m,0000000012Hz,0000037644c,0000000.082s, 009.0C,00002191
2021-11-24 05:13:24 r, 17.09m,0000000012Hz,0000037554c,0000000.081s, 008.7C,00002191
2021-11-24 05:23:23 r, 16.91m,0000000014Hz,0000031960c,0000000.069s, 008.3C,00002191
2021-11-24 05:33:23 r, 17.05m,0000000013Hz,0000036442c,0000000.079s, 008.0C,00002191
2021-11-24 05:43:25 r, 17.09m,0000000013Hz,0000037781c,0000000.082s, 008.0C,00002191
2021-11-24 05:53:23 r, 16.90m,0000000014Hz,0000031553c,0000000.068s, 007.7C,00002191
2021-11-24 06:03:23 r, 17.15m,0000000011Hz,0000039757c,0000000.086s, 007.4C,00002191
2021-11-24 06:13:25 r, 17.13m,0000000012Hz,0000039055c,0000000.085s, 007.4C,00002191
2021-11-24 06:23:23 r, 17.12m,0000000012Hz,0000038732c,0000000.084s, 007.0C,00002191
2021-11-24 06:33:23 r, 17.11m,0000000011Hz,0000038533c,0000000.084s, 007.0C,00002191
2021-11-24 06:43:23 r, 17.07m,0000000012Hz,0000037078c,0000000.080s, 006.7C,00002191
2021-11-24 06:53:23 r, 16.76m,0000000017Hz,0000027794c,0000000.060s, 006.4C,00002191
2021-11-24 07:03:23 r, 15.88m,0000000037Hz,0000012414c,0000000.027s, 006.4C,00002191
2021-11-24 07:13:23 r, 14.27m,0000000165Hz,0000000000c,0000000.000s, 006.1C,00002191
2021-11-24 07:23:23 r, 12.47m,0000000870Hz,0000000000c,0000000.000s, 005.8C,00002191
2021-11-24 07:33:23 r, 10.60m,0000004880Hz,0000000000c,0000000.000s, 005.8C,00002191
2021-11-24 07:43:24 r, 08.78m,0000026055Hz,0000000000c,0000000.000s, 005.4C,00002191
2021-11-24 07:53:23 r, 07.56m,0000080313Hz,0000000000c,0000000.000s, 005.4C,00002191
2021-11-24 08:03:23 r, 06.77m,0000166237Hz,0000000000c,0000000.000s, 005.1C,00002191
2021-11-24 08:13:25 r, 00.00m,0000490243Hz,0000000000c,0000000.000s, 004.8C,00002191
2021-11-24 08:23:23 r, 00.00m,0000599199Hz,0000000000c,0000000.000s, 005.1C,00002191
2021-11-24 08:33:23 r, 00.00m,0000599129Hz,0000000000c,0000000.000s, 004.8C,00002191
2021-11-24 08:43:23 r, 00.00m,0000599103Hz,0000000000c,0000000.000s, 005.1C,00002191
2021-11-24 08:53:23 r, 00.00m,0000599155Hz,0000000000c,0000000.000s, 004.8C,00002191
2021-11-24 09:03:23 r, 00.00m,0000599056Hz,0000000000c,0000000.000s, 005.1C,00002191
2021-11-24 09:13:23 r, 00.00m,0000599088Hz,0000000000c,0000000.000s, 005.1C,00002191
2021-11-24 09:23:23 r, 00.00m,0000599075Hz,0000000000c,0000000.000s, 005.1C,00002191
2021-11-24 09:33:23 r, 00.00m,0000599092Hz,0000000000c,0000000.000s, 005.1C,00002191
2021-11-24 09:43:24 r, 00.00m,0000599067Hz,0000000000c,0000000.000s, 005.1C,00002191
2021-11-24 09:53:23 r, 00.00m,0000599038Hz,0000000000c,0000000.000s, 005.4C,00002191
2021-11-24 10:03:23 r, 00.00m,0000599050Hz,0000000000c,0000000.000s, 005.8C,00002191
2021-11-24 10:13:25 r, 00.00m,0000599039Hz,0000000000c,0000000.000s, 005.8C,00002191
2021-11-24 10:23:23 r, 00.00m,0000599032Hz,0000000000c,0000000.000s, 005.8C,00002191
2021-11-24 10:33:23 r, 00.00m,0000599049Hz,0000000000c,0000000.000s, 005.4C,00002191
2021-11-24 10:43:25 r, 00.00m,0000599088Hz,0000000000c,0000000.000s, 005.4C,00002191
2021-11-24 10:53:23 r, 00.00m,0000599057Hz,0000000000c,0000000.000s, 005.8C,00002191
2021-11-24 11:03:23 r, 00.00m,0000599017Hz,0000000000c,0000000.000s, 006.1C,00002191
2021-11-24 11:13:23 r, 00.00m,0000599029Hz,0000000000c,0000000.000s, 006.1C,00002191
2021-11-24 11:23:23 r, 00.00m,0000599007Hz,0000000000c,0000000.000s, 005.8C,00002191
2021-11-24 11:33:23 r, 00.00m,0000598978Hz,0000000000c,0000000.000s, 006.1C,00002191
2021-11-24 11:43:23 r, 00.00m,0000598977Hz,0000000000c,0000000.000s, 006.7C,00002191
2021-11-24 11:53:23 r, 00.00m,0000599033Hz,0000000000c,0000000.000s, 006.7C,00002191
2021-11-24 12:03:23 r, 00.00m,0000598949Hz,0000000000c,0000000.000s, 006.7C,00002191
2021-11-24 12:13:24 r, 00.00m,0000599042Hz,0000000000c,0000000.000s, 005.8C,00002191
2021-11-24 12:23:23 r, 00.00m,0000599081Hz,0000000000c,0000000.000s, 004.8C,00002191
2021-11-24 12:33:23 r, 00.00m,0000599223Hz,0000000000c,0000000.000s, 004.5C,00002191
2021-11-24 12:43:25 r, 00.00m,0000599156Hz,0000000000c,0000000.000s, 004.5C,00002191
2021-11-24 12:53:23 r, 00.00m,0000599133Hz,0000000000c,0000000.000s, 004.1C,00002191
2021-11-24 13:03:23 r, 00.00m,0000599107Hz,0000000000c,0000000.000s, 003.8C,00002191
2021-11-24 13:13:25 r, 00.00m,0000599055Hz,0000000000c,0000000.000s, 003.8C,00002191
2021-11-24 13:23:23 r, 00.00m,0000599073Hz,0000000000c,0000000.000s, 003.8C,00002191
2021-11-24 13:33:23 r, 00.00m,0000599055Hz,0000000000c,0000000.000s, 003.8C,00002191
2021-11-24 13:43:23 r, 00.00m,0000599107Hz,0000000000c,0000000.000s, 003.8C,00002191
2021-11-24 13:53:24 r, 00.00m,0000599111Hz,0000000000c,0000000.000s, 003.8C,00002191
2021-11-24 14:03:23 r, 00.00m,0000599126Hz,0000000000c,0000000.000s, 003.8C,00002191
2021-11-24 14:13:24 r, 00.00m,0000599086Hz,0000000000c,0000000.000s, 003.5C,00002191
2021-11-24 14:23:23 r, 00.00m,0000599171Hz,0000000000c,0000000.000s, 003.5C,00002191
2021-11-24 14:33:23 r, 00.00m,0000599213Hz,0000000000c,0000000.000s, 003.5C,00002191
2021-11-24 14:43:23 r, 00.00m,0000599207Hz,0000000000c,0000000.000s, 003.5C,00002191
2021-11-24 14:53:25 r, 00.00m,0000599086Hz,0000000000c,0000000.000s, 003.5C,00002191
2021-11-24 15:03:23 r, 00.00m,0000599136Hz,0000000000c,0000000.000s, 003.5C,00002191
2021-11-24 15:13:25 r, 00.00m,0000599173Hz,0000000000c,0000000.000s, 003.5C,00002191
2021-11-24 15:23:23 r, 00.00m,0000599138Hz,0000000000c,0000000.000s, 004.1C,00002191
2021-11-24 15:33:23 r, 00.00m,0000562305Hz,0000000000c,0000000.000s, 004.8C,00002191
2021-11-24 15:43:25 r, 00.00m,0000480067Hz,0000000000c,0000000.000s, 004.5C,00002191
2021-11-24 15:53:23 r, 05.82m,0000395443Hz,0000000000c,0000000.000s, 004.5C,00002191
2021-11-24 16:03:23 r, 05.89m,0000374481Hz,0000000000c,0000000.000s, 004.1C,00002191
2021-11-24 16:13:23 r, 06.37m,0000239620Hz,0000000000c,0000000.000s, 003.8C,00002191
2021-11-24 16:23:24 r, 06.93m,0000143403Hz,0000000000c,0000000.000s, 002.9C,00002191
2021-11-24 16:33:23 r, 07.58m,0000078788Hz,0000000000c,0000000.000s, 002.5C,00002191
2021-11-24 16:43:24 r, 08.67m,0000028686Hz,0000000000c,0000000.000s, 001.9C,00002191
2021-11-24 16:53:23 r, 10.10m,0000007707Hz,0000000000c,0000000.000s, 001.2C,00002191
2021-11-24 17:03:23 r, 11.94m,0000001417Hz,0000000000c,0000000.000s, 000.9C,00002191
2021-11-24 17:13:23 r, 13.91m,0000000230Hz,0000000000c,0000000.000s, 000.6C,00002191
2021-11-24 17:23:25 r, 15.86m,0000000039Hz,0000012037c,0000000.026s, 000.6C,00002191
2021-11-24 17:33:23 r, 17.49m,0000000008Hz,0000054709c,0000000.119s, 000.3C,00002191
2021-11-24 17:43:25 r, 18.81m,0000000002Hz,0000183359c,0000000.398s, 000.1C,00002191
2021-11-24 17:53:23 r, 19.73m,0000000001Hz,0000425321c,0000000.923s, 000.1C,00002191
2021-11-24 18:03:22 r, 20.15m,0000000001Hz,0000625194c,0000001.357s,-000.4C,00002191
2021-11-24 18:13:23 r, 20.28m,0000000000Hz,0000708503c,0000001.538s,-000.4C,00002191
2021-11-24 18:23:24 r, 20.32m,0000000001Hz,0000732417c,0000001.589s,-000.4C,00002191
2021-11-24 18:33:22 r, 20.33m,0000000000Hz,0000740229c,0000001.606s,-000.4C,00002191
2021-11-24 18:43:24 r, 20.35m,0000000001Hz,0000748890c,0000001.625s,-000.4C,00002191
2021-11-24 18:53:23 r, 20.37m,0000000001Hz,0000758672c,0000001.646s,-000.4C,00002191
2021-11-24 19:03:22 r, 20.38m,0000000000Hz,0000766171c,0000001.663s,-000.7C,00002191
2021-11-24 19:13:23 r, 20.39m,0000000001Hz,0000772995c,0000001.678s,-000.7C,00002191
2021-11-24 19:23:25 r, 20.41m,0000000001Hz,0000788352c,0000001.711s,-000.7C,00002191
2021-11-24 19:33:22 r, 20.46m,0000000001Hz,0000824679c,0000001.790s,-000.7C,00002191
2021-11-24 19:43:25 r, 20.35m,0000000001Hz,0000747971c,0000001.623s,-000.7C,00002191
2021-11-24 19:53:23 r, 20.40m,0000000001Hz,0000784563c,0000001.703s,-000.7C,00002191
2021-11-24 20:03:22 r, 20.32m,0000000001Hz,0000726935c,0000001.578s,-000.7C,00002191
2021-11-24 20:13:25 r, 20.22m,0000000001Hz,0000664804c,0000001.443s,-000.7C,00002191
2021-11-24 20:23:23 r, 20.30m,0000000001Hz,0000715476c,0000001.553s,-000.4C,00002191
2021-11-24 20:33:22 r, 20.36m,0000000001Hz,0000753818c,0000001.636s,-000.7C,00002191
2021-11-24 20:43:23 r, 20.35m,0000000000Hz,0000748548c,0000001.624s,-000.7C,00002191
2021-11-24 20:53:24 r, 20.32m,0000000000Hz,0000725844c,0000001.575s,-001.0C,00002191
2021-11-24 21:03:23 r, 20.27m,0000000000Hz,0000698840c,0000001.517s,-001.3C,00002191
2021-11-24 21:13:24 r, 20.22m,0000000001Hz,0000666014c,0000001.445s,-002.0C,00002191
2021-11-24 21:23:23 r, 20.15m,0000000001Hz,0000629977c,0000001.367s,-002.3C,00002191
2021-11-24 21:33:23 r, 20.10m,0000000000Hz,0000600766c,0000001.304s,-002.3C,00002191
2021-11-24 21:43:23 r, 20.07m,0000000001Hz,0000580128c,0000001.259s,-002.6C,00002191
2021-11-24 21:53:25 r, 20.03m,0000000001Hz,0000559623c,0000001.214s,-003.0C,00002191
2021-11-24 22:03:22 r, 20.00m,0000000001Hz,0000542407c,0000001.177s,-003.3C,00002191
2021-11-24 22:13:22 r, 19.95m,0000000001Hz,0000520160c,0000001.129s,-003.6C,00002191
2021-11-24 22:23:23 r, 19.90m,0000000001Hz,0000497373c,0000001.079s,-003.6C,00002191
2021-11-24 22:33:22 r, 19.85m,0000000001Hz,0000474149c,0000001.029s,-003.9C,00002191
2021-11-24 22:43:22 r, 19.81m,0000000001Hz,0000456079c,0000000.990s,-003.9C,00002191
2021-11-24 22:53:22 r, 19.76m,0000000002Hz,0000436943c,0000000.948s,-004.2C,00002191
2021-11-24 23:03:22 r, 19.72m,0000000001Hz,0000421401c,0000000.914s,-004.2C,00002191
2021-11-24 23:13:22 r, 19.68m,0000000002Hz,0000404434c,0000000.878s,-004.2C,00002191
2021-11-24 23:23:24 r, 19.63m,0000000001Hz,0000386697c,0000000.839s,-004.6C,00002191
2021-11-24 23:41:49 r, 19.58m,0000000001Hz,0000369564c,0000000.802s,-004.6C,00002191
2021-11-24 23:43:22 r, 19.53m,0000000002Hz,0000352349c,0000000.765s,-004.9C,00002191
2021-11-24 23:53:22 r, 19.47m,0000000002Hz,0000335190c,0000000.727s,-004.9C,00002191
